| time (UTC) | temp F | wind direction | speed knots | gust knots | rain 1hr in | rain 24hr in | rain mn in | humidity % | barometer mb |
| 20260504045437 | 51 | 202 | 0.0 | 0.0 | 0.00 | 0.00 | 0.00 | 84 | 1029.2 |
| 20260504044437 | 51 | 202 | 0.0 | 0.9 | 0.00 | 0.00 | 0.00 | 84 | 1029.3 |
| 20260504043435 | 51 | 202 | 0.0 | 0.0 | 0.00 | 0.00 | 0.00 | 84 | 1029.5 |
| 20260504042437 | 52 | 202 | 0.0 | 0.0 | 0.00 | 0.00 | 0.00 | 84 | 1029.5 |
| 20260504041437 | 52 | 202 | 0.0 | 0.0 | 0.00 | 0.00 | 0.00 | 84 | 1029.4 |
| 20260504040436 | 52 | 202 | 0.0 | 1.7 | 0.00 | 0.00 | 0.00 | 84 | 1029.5 |
| 20260504035436 | 52 | 202 | 0.0 | 0.0 | 0.00 | 0.00 | 0.00 | 84 | 1029.4 |
| 20260504034438 | 52 | 202 | 0.0 | 0.0 | 0.00 | 0.00 | 0.00 | 84 | 1029.4 |
| 20260504032436 | 52 | 204 | 0.9 | 1.7 | 0.00 | 0.00 | 0.00 | 84 | 1029.6 |
| 20260504030437 | 53 | 180 | 0.9 | 1.7 | 0.00 | 0.00 | 0.00 | 84 | 1029.6 |
| 20260504025437 | 53 | 218 | 0.9 | 1.7 | 0.00 | 0.00 | 0.00 | 84 | 1029.6 |
| 20260504023436 | 53 | 202 | 0.0 | 0.9 | 0.00 | 0.00 | 0.00 | 84 | 1029.6 |
| 20260504022437 | 53 | 236 | 0.9 | 1.7 | 0.00 | 0.00 | 0.00 | 84 | 1029.7 |
| 20260504021436 | 53 | 174 | 0.9 | 1.7 | 0.00 | 0.00 | 0.00 | 85 | 1029.7 |
| 20260504020436 | 53 | 204 | 0.9 | 1.7 | 0.00 | 0.00 | 0.00 | 85 | 1029.7 |
| 20260504014436 | 53 | 270 | 0.0 | 0.0 | 0.00 | 0.00 | 0.00 | 86 | 1029.8 |
| 20260504013438 | 53 | 231 | 0.0 | 1.7 | 0.00 | 0.00 | 0.00 | 86 | 1030.0 |
| 20260504012437 | 52 | 225 | 0.0 | 0.9 | 0.00 | 0.00 | 0.00 | 86 | 1030.1 |
| 20260504011436 | 52 | 212 | 0.9 | 2.6 | 0.00 | 0.00 | 0.00 | 86 | 1030.3 |
| 20260504010438 | 52 | 236 | 0.9 | 1.7 | 0.00 | 0.00 | 0.00 | 86 | 1030.5 |
| 20260504004436 | 51 | 199 | 1.7 | 3.5 | 0.00 | 0.00 | 0.00 | 86 | 1030.7 |
| 20260504003438 | 51 | 201 | 1.7 | 4.3 | 0.00 | 0.00 | 0.00 | 87 | 1031.0 |
| 20260504002436 | 51 | 227 | 1.7 | 3.5 | 0.00 | 0.00 | 0.00 | 87 | 1031.3 |
| 20260504001435 | 51 | 201 | 0.9 | 1.7 | 0.00 | 0.00 | 0.00 | 87 | 1031.2 |
| 20260504000436 | 51 | 232 | 1.7 | 3.5 | 0.00 | 0.00 | 0.00 | 87 | 1031.4 |
| 20260503235437 | 51 | 223 | 1.7 | 4.3 | 0.00 | 0.00 | 0.00 | 87 | 1031.5 |
| 20260503234436 | 50 | 229 | 0.9 | 1.7 | 0.00 | 0.00 | 0.00 | 87 | 1031.4 |
| 20260503233446 | 50 | 244 | 1.7 | 5.2 | 0.00 | 0.00 | 0.00 | 87 | 1031.5 |
| 20260503231438 | 50 | 234 | 1.7 | 3.5 | 0.00 | 0.00 | 0.00 | 88 | 1031.7 |
| 20260503230436 | 49 | 219 | 0.9 | 2.6 | 0.00 | 0.00 | 0.00 | 87 | 1031.8 |
| 20260503225445 | 49 | 199 | 0.9 | 2.6 | 0.00 | 0.00 | 0.00 | 87 | 1031.5 |
| 20260503224437 | 49 | 219 | 1.7 | 3.5 | 0.00 | 0.00 | 0.00 | 87 | 1031.5 |
| 20260503223437 | 49 | 221 | 0.9 | 1.7 | 0.00 | 0.00 | 0.00 | 87 | 1031.6 |
| 20260503222436 | 49 | 236 | 1.7 | 3.5 | 0.00 | 0.00 | 0.00 | 87 | 1031.6 |
| 20260503214436 | 48 | 225 | 0.0 | 0.0 | 0.00 | 0.00 | 0.00 | 87 | 1031.5 |
| 20260503213437 | 48 | 218 | 0.0 | 2.6 | 0.00 | 0.00 | 0.00 | 87 | 1031.3 |
| 20260503212436 | 47 | 225 | 0.0 | 1.7 | 0.00 | 0.00 | 0.00 | 86 | 1031.6 |
| 20260503211436 | 47 | 225 | 0.0 | 0.0 | 0.00 | 0.00 | 0.00 | 86 | 1031.4 |
| 20260503210436 | 47 | 52 | 0.0 | 1.7 | 0.00 | 0.00 | 0.00 | 86 | 1031.4 |
| 20260503205436 | 47 | 22 | 0.0 | 0.0 | 0.00 | 0.00 | 0.00 | 86 | 1031.5 |
| 20260503204435 | 46 | 22 | 0.0 | 0.0 | 0.00 | 0.00 | 0.00 | 86 | 1031.4 |
| 20260503203439 | 46 | 22 | 0.0 | 0.0 | 0.00 | 0.00 | 0.00 | 86 | 1031.5 |
| 20260503202437 | 46 | 22 | 0.0 | 0.0 | 0.00 | 0.00 | 0.00 | 86 | 1031.3 |
| 20260503195435 | 45 | 22 | 0.0 | 0.0 | 0.00 | 0.00 | 0.00 | 86 | 1031.0 |
| 20260503194435 | 44 | 22 | 0.0 | 0.0 | 0.00 | 0.00 | 0.00 | 86 | 1030.9 |
| 20260503193437 | 44 | 22 | 0.0 | 0.0 | 0.00 | 0.00 | 0.00 | 85 | 1030.7 |
| 20260503192437 | 44 | 22 | 0.0 | 0.9 | 0.00 | 0.00 | 0.00 | 85 | 1030.6 |
| 20260503191436 | 44 | 45 | 0.0 | 0.9 | 0.00 | 0.00 | 0.00 | 85 | 1030.4 |
| 20260503190437 | 44 | 45 | 0.0 | 0.9 | 0.00 | 0.00 | 0.00 | 85 | 1030.6 |
| 20260503185436 | 43 | 45 | 0.0 | 0.0 | 0.00 | 0.00 | 0.00 | 85 | 1030.7 |
| 20260503184436 | 43 | 22 | 0.0 | 0.9 | 0.00 | 0.00 | 0.00 | 85 | 1030.6 |
| 20260503183436 | 42 | 22 | 0.0 | 0.9 | 0.00 | 0.00 | 0.00 | 85 | 1030.5 |
| 20260503182436 | 42 | 45 | 1.7 | 1.7 | 0.00 | 0.00 | 0.00 | 85 | 1030.5 |
| 20260503181438 | 42 | 45 | 0.0 | 1.7 | 0.00 | 0.00 | 0.00 | 84 | 1030.5 |
| 20260503180436 | 42 | 45 | 0.0 | 0.9 | 0.00 | 0.00 | 0.00 | 84 | 1030.4 |
| 20260503174436 | 42 | 36 | 0.9 | 1.7 | 0.00 | 0.00 | 0.00 | 84 | 1030.3 |
| 20260503173436 | 42 | 39 | 1.7 | 2.6 | 0.00 | 0.00 | 0.00 | 84 | 1030.4 |
| 20260503172437 | 42 | 24 | 1.7 | 2.6 | 0.00 | 0.00 | 0.00 | 84 | 1030.2 |
| 20260503171438 | 42 | 28 | 0.9 | 1.7 | 0.00 | 0.00 | 0.00 | 83 | 1030.2 |
| 20260503170437 | 42 | 45 | 0.9 | 1.7 | 0.00 | 0.00 | 0.00 | 84 | 1030.4 |
| 20260503130436 | 44 | 30 | 1.7 | 2.6 | 0.00 | 0.00 | 0.00 | 81 | 1030.6 |
| 20260503110435 | 46 | 41 | 1.7 | 2.6 | 0.00 | 0.00 | 0.00 | 80 | 1031.0 |
| 20260503090435 | 46 | 45 | 0.9 | 1.7 | 0.00 | 0.00 | 0.00 | 78 | 1030.6 |
| 20260503081436 | 46 | 34 | 1.7 | 1.7 | 0.00 | 0.00 | 0.00 | 76 | 1030.6 |
| 20260503080438 | 46 | 30 | 1.7 | 2.6 | 0.00 | 0.00 | 0.00 | 76 | 1030.6 |
| 20260503072435 | 46 | 36 | 1.7 | 1.7 | 0.00 | 0.00 | 0.00 | 74 | 1030.6 |
| 20260503071435 | 46 | 45 | 0.9 | 1.7 | 0.00 | 0.00 | 0.00 | 74 | 1030.6 |
| 20260503070456 | 46 | 30 | 1.7 | 2.6 | 0.00 | 0.00 | 0.00 | 73 | 1030.5 |